Location: Newark
(31.5350°N, 35.0986°E)
Time: 03:11:28
(UTC+00:00)

Courier 1B - Pass Details

Date: 23 September 2019
Orbit: 962 x 1209 km, 28.3° (Epoch: 15 October)

Event Time Altitude Azimuth Distance (km) Brightness Sun altitude
Exits shadow 00:17:13 13° 124° (SE) 2,481 9.8 -39.8°
Drops below altitude 10° 00:18:38 10° 113° (ESE) 2,745 10.2 -39.5°
Sets 00:22:24 0° 94° (E) 3,738 11.2 -38.8°
